User: anonymous   Login
Location: *
(53.9002°N, 27.5624°E)
Time: 15:12:40
(UTC+00:00)
Language:

Cosmos 2219 - Orbit

View from above orbital plane
View from above orbital plane
View from above satellite
View from above satellite

Ground track
Ground track

The orbit data is extracted from the following two-line orbital elements,

1 22219U 92076A   20021.39802739 -.00000283  00000-0 -12500-3 0  9992
2 22219  71.0574  16.9951 0017172  13.4003 346.7572 14.13629600402217
Epoch (UTC): 21 January 2020 09:33:09
Eccentricity: 0.0017172
inclination: 71.0574°
perigee height: 834 km
apogee height: 859 km
right ascension of ascending node: 16.9951°
argument of perigee: 13.4003°
revolutions per day: 14.13629600
mean anomaly at epoch: 346.7572°
orbit number at epoch: 40221

The dashed part of the orbit path shows where the satellite is in the earth's shadow,  

DLR